| time (UTC) | temp F | wind direction | speed MPH | gust MPH | rain 1hr in | rain 24hr in | rain mn in | humidity % | barometer mb |
| 20260503220019 | 65 | 97 | 2.0 | 3.0 | 0.00 | 0.00 | 0.00 | 80 | 1013.7 |
| 20260503215007 | 65 | 129 | 2.0 | 4.0 | 0.00 | 0.00 | 0.00 | 81 | 1013.9 |
| 20260503214008 | 65 | 137 | 3.0 | 5.0 | 0.00 | 0.00 | 0.00 | 81 | 1013.9 |
| 20260503213012 | 65 | 142 | 3.0 | 6.0 | 0.00 | 0.00 | 0.00 | 81 | 1013.9 |
| 20260503212010 | 65 | 189 | 2.0 | 4.0 | 0.00 | 0.00 | 0.00 | 80 | 1014.1 |
| 20260503210015 | 65 | 164 | 3.0 | 4.0 | 0.00 | 0.00 | 0.00 | 81 | 1014.0 |
| 20260503205010 | 65 | 134 | 3.0 | 4.0 | 0.00 | 0.00 | 0.00 | 81 | 1013.7 |
| 20260503204011 | 65 | 128 | 3.0 | 5.0 | 0.00 | 0.00 | 0.00 | 80 | 1013.6 |
| 20260503203025 | 65 | 129 | 4.0 | 6.0 | 0.00 | 0.00 | 0.00 | 80 | 1013.5 |
| 20260503202007 | 65 | 141 | 3.0 | 5.0 | 0.00 | 0.00 | 0.00 | 79 | 1013.2 |
| 20260503201019 | 65 | 125 | 4.0 | 6.0 | 0.00 | 0.00 | 0.00 | 79 | 1013.1 |
| 20260503195010 | 66 | 119 | 3.0 | 5.0 | 0.00 | 0.00 | 0.00 | 78 | 1013.0 |
| 20260503194008 | 66 | 85 | 3.0 | 4.0 | 0.00 | 0.00 | 0.00 | 78 | 1013.0 |
| 20260503193025 | 65 | 91 | 3.0 | 5.0 | 0.00 | 0.00 | 0.00 | 77 | 1012.7 |
| 20260503192008 | 66 | 100 | 4.0 | 6.0 | 0.00 | 0.00 | 0.00 | 77 | 1012.6 |
| 20260503191007 | 66 | 96 | 3.0 | 5.0 | 0.00 | 0.00 | 0.00 | 76 | 1012.8 |
| 20260503190010 | 66 | 88 | 4.0 | 6.0 | 0.00 | 0.00 | 0.00 | 75 | 1012.8 |
| 20260503185008 | 66 | 81 | 6.0 | 8.0 | 0.00 | 0.00 | 0.00 | 76 | 1012.8 |
| 20260503184009 | 66 | 81 | 5.0 | 7.0 | 0.00 | 0.00 | 0.00 | 74 | 1012.6 |
| 20260503183012 | 66 | 64 | 5.0 | 7.0 | 0.00 | 0.00 | 0.00 | 74 | 1012.7 |
| 20260503182009 | 66 | 72 | 5.0 | 9.0 | 0.00 | 0.00 | 0.00 | 74 | 1012.4 |
| 20260503181025 | 66 | 104 | 6.0 | 9.0 | 0.00 | 0.00 | 0.00 | 76 | 1012.6 |
| 20260503180024 | 66 | 86 | 6.0 | 10.0 | 0.00 | 0.00 | 0.00 | 73 | 1012.3 |
| 20260503175007 | 66 | 79 | 7.0 | 11.0 | 0.00 | 0.00 | 0.00 | 70 | 1012.3 |
| 20260503174008 | 66 | 77 | 6.0 | 10.0 | 0.00 | 0.00 | 0.00 | 70 | 1012.4 |
| 20260503173027 | 66 | 88 | 7.0 | 10.0 | 0.00 | 0.00 | 0.00 | 73 | 1012.3 |
| 20260503172008 | 67 | 81 | 7.0 | 10.0 | 0.00 | 0.00 | 0.00 | 73 | 1012.4 |
| 20260503171008 | 67 | 96 | 6.0 | 9.0 | 0.00 | 0.00 | 0.00 | 71 | 1012.6 |
| 20260503151009 | 69 | 105 | 6.0 | 9.0 | 0.00 | 0.00 | 0.00 | 64 | 1012.5 |
| 20260503131008 | 72 | 50 | 9.0 | 13.0 | 0.00 | 0.00 | 0.00 | 59 | 1013.7 |
| 20260503081010 | 64 | 110 | 5.0 | 8.0 | 0.00 | 0.00 | 0.00 | 85 | 1015.4 |
| 20260503072007 | 64 | 133 | 5.0 | 8.0 | 0.00 | 0.00 | 0.00 | 82 | 1015.1 |
| 20260503071009 | 64 | 120 | 5.0 | 8.0 | 0.00 | 0.00 | 0.00 | 82 | 1014.9 |
| 20260503055008 | 64 | 99 | 3.0 | 6.0 | 0.00 | 0.00 | 0.00 | 85 | 1014.5 |
| 20260503054008 | 64 | 108 | 4.0 | 7.0 | 0.00 | 0.00 | 0.00 | 85 | 1014.7 |
| 20260503053022 | 64 | 59 | 3.0 | 5.0 | 0.00 | 0.00 | 0.00 | 85 | 1014.6 |
| 20260503052009 | 64 | 34 | 4.0 | 6.0 | 0.00 | 0.00 | 0.00 | 86 | 1014.6 |
| 20260503051008 | 64 | 48 | 4.0 | 6.0 | 0.00 | 0.00 | 0.00 | 85 | 1014.6 |
| 20260503050010 | 64 | 46 | 4.0 | 7.0 | 0.00 | 0.00 | 0.00 | 85 | 1014.8 |
| 20260503045008 | 64 | 37 | 4.0 | 7.0 | 0.00 | 0.00 | 0.00 | 86 | 1014.7 |
| 20260503043012 | 64 | 32 | 5.0 | 8.0 | 0.00 | 0.00 | 0.00 | 87 | 1014.4 |
| 20260503042029 | 64 | 36 | 6.0 | 9.0 | 0.00 | 0.00 | 0.00 | 87 | 1014.5 |
| 20260503041008 | 64 | 20 | 5.0 | 8.0 | 0.00 | 0.00 | 0.00 | 88 | 1014.6 |
| 20260503040027 | 64 | 20 | 6.0 | 10.0 | 0.00 | 0.00 | 0.00 | 88 | 1014.6 |
| 20260503033025 | 65 | 19 | 4.0 | 6.0 | 0.00 | 0.00 | 0.00 | 88 | 1014.6 |
| 20260503032019 | 65 | 25 | 4.0 | 6.0 | 0.00 | 0.00 | 0.00 | 87 | 1014.6 |
| 20260503031020 | 65 | 48 | 5.0 | 8.0 | 0.00 | 0.00 | 0.00 | 87 | 1014.7 |
| 20260503030028 | 65 | 40 | 5.0 | 8.0 | 0.00 | 0.00 | 0.00 | 87 | 1014.8 |
| 20260503025025 | 65 | 38 | 5.0 | 8.0 | 0.00 | 0.00 | 0.00 | 84 | 1015.0 |
| 20260503024023 | 65 | 39 | 3.0 | 5.0 | 0.00 | 0.00 | 0.00 | 84 | 1015.2 |
| 20260503023039 | 65 | 49 | 4.0 | 6.0 | 0.00 | 0.00 | 0.00 | 84 | 1015.3 |
| 20260503022026 | 65 | 62 | 3.0 | 5.0 | 0.00 | 0.00 | 0.00 | 83 | 1015.4 |
| 20260503021018 | 65 | 74 | 4.0 | 6.0 | 0.00 | 0.00 | 0.00 | 83 | 1015.4 |
| 20260503020024 | 64 | 60 | 3.0 | 5.0 | 0.00 | 0.00 | 0.00 | 83 | 1015.4 |
| 20260503015020 | 65 | 75 | 4.0 | 6.0 | 0.00 | 0.00 | 0.00 | 85 | 1015.4 |
| 20260503013025 | 65 | 68 | 4.0 | 7.0 | 0.00 | 0.00 | 0.00 | 86 | 1015.7 |
| 20260503005021 | 65 | 40 | 5.0 | 7.0 | 0.00 | 0.00 | 0.00 | 85 | 1016.1 |
| 20260503004029 | 65 | 46 | 6.0 | 10.0 | 0.00 | 0.00 | 0.00 | 85 | 1016.1 |
| 20260503002035 | 65 | 49 | 6.0 | 9.0 | 0.00 | 0.00 | 0.00 | 84 | 1016.5 |
| 20260503001027 | 65 | 40 | 6.0 | 9.0 | 0.00 | 0.00 | 0.00 | 84 | 1016.6 |
| 20260502235028 | 65 | 54 | 5.0 | 7.0 | 0.00 | 0.00 | 0.00 | 83 | 1016.9 |
| 20260502234032 | 65 | 63 | 4.0 | 7.0 | 0.00 | 0.00 | 0.00 | 83 | 1017.2 |
| 20260502233010 | 65 | 31 | 4.0 | 6.0 | 0.00 | 0.00 | 0.00 | 82 | 1017.1 |
| 20260502232007 | 66 | 34 | 4.0 | 7.0 | 0.00 | 0.00 | 0.00 | 83 | 1017.0 |
| 20260502231008 | 66 | 45 | 3.0 | 5.0 | 0.00 | 0.00 | 0.00 | 83 | 1017.1 |
| 20260502230009 | 66 | 42 | 4.0 | 6.0 | 0.00 | 0.00 | 0.00 | 82 | 1017.0 |
| 20260502224008 | 66 | 57 | 3.0 | 5.0 | 0.00 | 0.00 | 0.00 | 81 | 1017.3 |
| 20260502222007 | 66 | 89 | 3.0 | 5.0 | 0.00 | 0.00 | 0.00 | 81 | 1017.1 |
| 20260502221008 | 66 | 114 | 4.0 | 6.0 | 0.00 | 0.00 | 0.00 | 81 | 1017.4 |